This is the latest recevied weather packets stored in our database for station/object WB5CFT. If no packets are shown the sender has not sent any weather packets the latest 10 day(s).
| Time | Temp. | Humidity | Pressure | Rain* | Wind** | Luminosity | Snow |
|---|---|---|---|---|---|---|---|
| 1777744298 | 15.56° C | 56% | 1025.7 hPa | 0 mm | - | 809 W/m² | - |
| 1777743996 | 16.67° C | 54% | 1026 hPa | 0 mm | - | 677 W/m² | - |
| 1777743692 | 15.56° C | 55% | 1025.9 hPa | 0 mm | - | 673 W/m² | - |
| 1777743390 | 15.56° C | 55% | 1025.9 hPa | 0 mm | - | 808 W/m² | - |
| 1777743088 | 15° C | 55% | 1026 hPa | 0 mm | - | 467 W/m² | - |
| 1777742785 | 15° C | 56% | 1026.1 hPa | 0 mm | - | 412 W/m² | - |
| 1777742481 | 15.56° C | 57% | 1026 hPa | 0 mm | - | 613 W/m² | - |
| 1777742176 | 15° C | 56% | 1026.2 hPa | 0 mm | - | 540 W/m² | - |
| 1777741874 | 14.44° C | 59% | 1026.2 hPa | 0 mm | - | 456 W/m² | - |
| 1777741571 | 15.56° C | 54% | 1026.3 hPa | 0 mm | - | 273 W/m² | - |
| 1777741268 | 15.56° C | 57% | 1026.1 hPa | 0 mm | - | 498 W/m² | - |
| 1777740964 | 15° C | 60% | 1026.2 hPa | 0 mm | - | 298 W/m² | - |
| 1777740661 | 15° C | 60% | 1026.2 hPa | 0 mm | - | 331 W/m² | - |
| 1777740357 | 15.56° C | 60% | 1026.2 hPa | 0 mm | - | 348 W/m² | - |
| 1777740054 | 15° C | 61% | 1026.2 hPa | 0 mm | - | 452 W/m² | - |
| 1777739750 | 15° C | 61% | 1026.1 hPa | 0 mm | - | 352 W/m² | - |
| 1777739447 | 15° C | 60% | 1026.3 hPa | 0 mm | - | 313 W/m² | - |
| 1777739144 | 14.44° C | 60% | 1026.3 hPa | 0 mm | - | 293 W/m² | - |
| 1777738841 | 14.44° C | 64% | 1026.3 hPa | 0 mm | - | 289 W/m² | - |
| 1777738538 | 13.89° C | 65% | 1026 hPa | 0 mm | - | 278 W/m² | - |
| 1777738236 | 13.89° C | 66% | 1026.1 hPa | 0 mm | - | 274 W/m² | - |
| 1777737933 | 13.89° C | 67% | 1026 hPa | 0 mm | - | 265 W/m² | - |
| 1777737632 | 14.44° C | 69% | 1026 hPa | 0 mm | - | 270 W/m² | - |
| 1777737330 | 13.89° C | 70% | 1025.8 hPa | 0 mm | - | 270 W/m² | - |
| 1777737026 | 13.89° C | 70% | 1025.9 hPa | 0 mm | - | 276 W/m² | - |
* Rain latest hour (hover to see other rain measurements)
** Current wind speed in m/s (hover to see current wind gust speed)